Regional Weather Roundup
Issued by NWS

Home | Current Version | Previous Version | Text Only | Print | Product List | Glossary On
Versions: 1 2 3 4 5 6 7 8 9 10 11 12 13 14 15 16 17 18 19 20 21 22 23 24 25 26 27 28 29 30 31 32 33 34 35 36 37 38 39 40 41 42 43 44 45 46 47 48 49 50
000
ASUS43 KTOP 290608
RWRKS

WEATHER ROUNDUP FOR KANSAS
NATIONAL WEATHER SERVICE GOODLAND KS
100 AM CDT SAT AUG 29 2015

NOTE:  "FAIR" INDICATES FEW OR NO CLOUDS BELOW 12,000 FEET WITH NO
SIGNIFICANT WEATHER AND/OR OBSTRUCTIONS TO VISIBILITY.

KSZ001>006-013>018-027>032-041>047-290700-
NORTHWEST KANSAS

CITY           SKY/WX    TMP DP  RH WIND       PRES   REMARKS
GOODLAND       CLEAR     59  54  83 S8        30.18R
6HR MIN TEMP:  58; 6HR MAX TEMP:  87;

HAYS           FAIR      66  55  68 NE5       30.07R
HILL CITY      FAIR      62  59  90 NW3       30.09R
6HR MIN TEMP:  62; 6HR MAX TEMP:  86;

RUSSELL        FAIR      66  62  87 N5        30.04S
6HR MIN TEMP:  65; 6HR MAX TEMP:  85;

$$

KSZ061>065-074>080-084>089-290700-
SOUTHWEST KANSAS

CITY           SKY/WX    TMP DP  RH WIND       PRES   REMARKS
DODGE CITY     FAIR      63  60  90 NE7       30.09R
6HR MIN TEMP:  63; 6HR MAX TEMP:  89;

ELKHART          N/A     73  58  59 W5          N/A
GARDEN CITY    FAIR      67  59  75 E9        30.11R
6HR MIN TEMP:  66; 6HR MAX TEMP:  88;

GREAT BEND     FAIR      68  61  77 NE5       30.05S
LIBERAL        FAIR      73  57  56 NE8       30.10R
PRATT          FAIR      68  63  83 CALM      30.06R
$$

KSZ066>073-081>083-090>101-290700-
SOUTHEAST KANSAS

CITY           SKY/WX    TMP DP  RH WIND       PRES   REMARKS
CHANUTE        FAIR      71  68  90 S8        29.96S
6HR MIN TEMP:  69; 6HR MAX TEMP:  76;

COFFEYVILLE    MOCLDY    72  68  87 S6        29.94F
6HR MIN TEMP:  70; 6HR MAX TEMP:  77;

HUTCHINSON     FAIR      72  66  81 CALM      30.02R
6HR MIN TEMP:  71; 6HR MAX TEMP:  87;

MEDICINE LODGE   N/A     72  67  84 N7        29.99S
NEWTON         CLOUDY    70  63  78 N7        30.02S
PARSONS        MOCLDY    70  69  97 CALM      29.98R
6HR MIN TEMP:  69; 6HR MAX TEMP:  76; 6HR PCP: TRACE;

WICHITA INTL   FAIR      74  67  78 N7        29.99R
6HR MIN TEMP:  73; 6HR MAX TEMP:  84; 6HR PCP: TRACE;

WICHITA JABRA  FAIR      69  67  93 N6        29.99R
6HR MIN TEMP:  68; 6HR MAX TEMP:  82; 6HR PCP:  0.16;

WICHITA MCCONL FAIR      71  65  81 N8        29.98S
$$

KSZ007>012-019>026-033>040-048>060-102>105-290700-
NORTHEAST KANSAS

CITY           SKY/WX    TMP DP  RH WIND       PRES   REMARKS
CONCORDIA      FAIR      64  62  93 W6        30.01R
6HR MIN TEMP:  64; 6HR MAX TEMP:  76;

EMPORIA        FAIR      71  68  90 NW6       29.97R
6HR MIN TEMP:  71; 6HR MAX TEMP:  77;

LAWRENCE       CLOUDY    68  66  93 CALM      29.94S
6HR MIN TEMP:  68; 6HR MAX TEMP:  76;

MANHATTAN      MOCLDY    69  65  86 NW3       29.98R
6HR MIN TEMP:  68; 6HR MAX TEMP:  82;

MARYSVILLE     CLOUDY   N/A N/A N/A N5        29.98R
OLATHE IND     FAIR      70  68  93 S8        29.95R
6HR MIN TEMP:  70; 6HR MAX TEMP:  73;

OLATHE EXE     MOCLDY    70  68  93 S7        29.94R
6HR MIN TEMP:  70; 6HR MAX TEMP:  72; 6HR PCP:  0.03;

SALINA         FAIR      70  64  81 CALM      30.01R
6HR MIN TEMP:  69; 6HR MAX TEMP:  84; 6HR PCP: TRACE;

TOPEKA BILLARD MOCLDY    71  70  96 NW7       29.95R
6HR MIN TEMP:  71; 6HR MAX TEMP:  77; 6HR PCP:  0.12;

TOPEKA FORBES  CLOUDY    73  69  87 NW9       29.95R
6HR MIN TEMP:  71; 6HR MAX TEMP:  77; 6HR PCP:  0.02;

$$


USA.gov is the U.S. government's official web portal to all federal, state and local government web resources and services.